| time (UTC) | temp F | wind direction | speed MPH | gust MPH | rain 1hr in | rain 24hr in | rain mn in | humidity % | barometer mb |
| 20260506092803 | 56 | 59 | 0.0 | 1.0 | 0.00 | 0.03 | 0.00 | 95 | 1016.4 |
| 20260506091803 | 56 | 106 | 0.0 | 1.0 | 0.00 | 0.04 | 0.00 | 95 | 1016.4 |
| 20260506085803 | 55 | 115 | 0.0 | 1.0 | 0.00 | 0.05 | 0.00 | 94 | 1016.5 |
| 20260506084803 | 56 | 93 | 0.0 | 1.0 | 0.00 | 0.05 | 0.00 | 93 | 1016.5 |
| 20260506082803 | 56 | 165 | 0.0 | 1.0 | 0.00 | 0.06 | 0.00 | 94 | 1016.6 |
| 20260506081803 | 56 | 337 | 0.0 | 1.0 | 0.00 | 0.09 | 0.00 | 94 | 1016.7 |
| 20260506072803 | 56 | 134 | 0.0 | 2.0 | 0.00 | 0.16 | 0.13 | 93 | 1016.7 |
| 20260506071845 | 56 | 151 | 0.0 | 2.0 | 0.00 | 0.16 | 0.13 | 93 | 1016.7 |
| 20260506061802 | 57 | 318 | 0.0 | 1.0 | 0.00 | 0.19 | 0.13 | 91 | 1016.3 |
| 20260506044803 | 60 | 237 | 1.0 | 2.0 | 0.00 | 0.20 | 0.13 | 85 | 1015.4 |
| 20260506042803 | 60 | 224 | 1.0 | 3.0 | 0.00 | 0.20 | 0.13 | 83 | 1015.3 |
| 20260506041802 | 61 | 226 | 0.0 | 2.0 | 0.00 | 0.20 | 0.13 | 82 | 1015.3 |
| 20260506035803 | 61 | 185 | 0.0 | 2.0 | 0.00 | 0.20 | 0.13 | 79 | 1014.9 |
| 20260506034803 | 62 | 224 | 1.0 | 4.0 | 0.00 | 0.20 | 0.13 | 78 | 1014.8 |
| 20260506032802 | 62 | 231 | 1.0 | 3.0 | 0.00 | 0.20 | 0.13 | 77 | 1014.7 |
| 20260506031803 | 63 | 242 | 2.0 | 3.0 | 0.00 | 0.20 | 0.13 | 76 | 1014.5 |
| 20260506025802 | 63 | 248 | 1.0 | 6.0 | 0.00 | 0.20 | 0.13 | 76 | 1014.1 |
| 20260506024803 | 64 | 248 | 3.0 | 6.0 | 0.00 | 0.20 | 0.13 | 74 | 1013.7 |
| 20260506022803 | 65 | 248 | 3.0 | 6.0 | 0.00 | 0.20 | 0.13 | 70 | 1013.4 |
| 20260506021803 | 65 | 238 | 2.0 | 6.0 | 0.00 | 0.20 | 0.13 | 69 | 1013.4 |
| 20260506015803 | 66 | 239 | 2.0 | 6.0 | 0.00 | 0.20 | 0.13 | 69 | 1013.4 |
| 20260506014804 | 65 | 281 | 2.0 | 6.0 | 0.00 | 0.20 | 0.13 | 67 | 1013.3 |
| 20260506012802 | 68 | 251 | 2.0 | 5.0 | 0.00 | 0.20 | 0.13 | 66 | 1013.1 |
| 20260506011803 | 68 | 222 | 3.0 | 11.0 | 0.00 | 0.20 | 0.13 | 64 | 1013.1 |
| 20260506005803 | 68 | 237 | 2.0 | 6.0 | 0.00 | 0.20 | 0.13 | 66 | 1013.1 |
| 20260506004802 | 68 | 232 | 2.0 | 9.0 | 0.00 | 0.20 | 0.13 | 64 | 1013.1 |
| 20260506002803 | 70 | 241 | 3.0 | 10.0 | 0.00 | 0.20 | 0.13 | 63 | 1012.9 |
| 20260506001802 | 70 | 263 | 3.0 | 10.0 | 0.00 | 0.20 | 0.13 | 62 | 1013.0 |
| 20260505235802 | 70 | 229 | 4.0 | 10.0 | 0.00 | 0.20 | 0.13 | 61 | 1013.0 |
| 20260505234803 | 70 | 243 | 4.0 | 11.0 | 0.00 | 0.20 | 0.13 | 60 | 1013.0 |
| 20260505232802 | 70 | 250 | 6.0 | 12.0 | 0.00 | 0.20 | 0.13 | 58 | 1013.1 |
| 20260505231803 | 70 | 253 | 6.0 | 12.0 | 0.00 | 0.20 | 0.13 | 62 | 1013.1 |
| 20260505225802 | 68 | 241 | 6.0 | 12.0 | 0.00 | 0.20 | 0.13 | 64 | 1013.1 |
| 20260505224803 | 68 | 238 | 5.0 | 15.0 | 0.00 | 0.20 | 0.13 | 61 | 1013.3 |
| 20260505222803 | 70 | 208 | 3.0 | 11.0 | 0.00 | 0.20 | 0.13 | 61 | 1013.4 |
| 20260505221803 | 70 | 230 | 4.0 | 13.0 | 0.00 | 0.20 | 0.13 | 61 | 1013.4 |
| 20260505215802 | 71 | 228 | 5.0 | 14.0 | 0.00 | 0.20 | 0.13 | 58 | 1013.8 |
| 20260505214803 | 71 | 229 | 4.0 | 13.0 | 0.00 | 0.20 | 0.13 | 59 | 1013.8 |
| 20260505212803 | 71 | 218 | 5.0 | 13.0 | 0.00 | 0.20 | 0.13 | 56 | 1013.8 |
| 20260505211803 | 71 | 217 | 5.0 | 12.0 | 0.00 | 0.20 | 0.13 | 61 | 1014.0 |
| 20260505205824 | 70 | 196 | 3.0 | 13.0 | 0.00 | 0.20 | 0.13 | 61 | 1014.0 |
| 20260505204802 | 70 | 217 | 5.0 | 13.0 | 0.00 | 0.20 | 0.13 | 60 | 1014.1 |
| 20260505202803 | 69 | 233 | 4.0 | 14.0 | 0.00 | 0.20 | 0.13 | 63 | 1014.0 |
| 20260505201803 | 69 | 235 | 6.0 | 14.0 | 0.00 | 0.20 | 0.13 | 62 | 1014.0 |
| 20260505195803 | 68 | 211 | 5.0 | 14.0 | 0.00 | 0.20 | 0.13 | 65 | 1014.1 |
| 20260505194803 | 69 | 221 | 4.0 | 14.0 | 0.00 | 0.20 | 0.13 | 64 | 1014.1 |
| 20260505192803 | 68 | 220 | 4.0 | 17.0 | 0.00 | 0.20 | 0.13 | 63 | 1014.2 |
| 20260505191803 | 68 | 225 | 6.0 | 14.0 | 0.00 | 0.20 | 0.13 | 61 | 1014.2 |
| 20260505185803 | 69 | 235 | 3.0 | 13.0 | 0.00 | 0.20 | 0.13 | 66 | 1014.2 |
| 20260505184824 | 69 | 221 | 5.0 | 10.0 | 0.00 | 0.20 | 0.13 | 65 | 1014.3 |
| 20260505182823 | 66 | 222 | 4.0 | 12.0 | 0.00 | 0.20 | 0.13 | 71 | 1014.2 |
| 20260505181824 | 65 | 245 | 4.0 | 11.0 | 0.00 | 0.20 | 0.13 | 71 | 1014.1 |
| 20260505175803 | 67 | 210 | 3.0 | 11.0 | 0.00 | 0.20 | 0.13 | 70 | 1014.1 |
| 20260505174802 | 68 | 198 | 3.0 | 12.0 | 0.00 | 0.20 | 0.13 | 70 | 1013.9 |
| 20260505172802 | 67 | 214 | 3.0 | 10.0 | 0.00 | 0.20 | 0.13 | 72 | 1013.9 |
| 20260505171824 | 67 | 263 | 4.0 | 9.0 | 0.00 | 0.20 | 0.13 | 71 | 1013.7 |
| 20260505165803 | 66 | 240 | 3.0 | 10.0 | 0.00 | 0.20 | 0.13 | 74 | 1013.6 |
| 20260505164803 | 65 | 221 | 2.0 | 5.0 | 0.00 | 0.20 | 0.13 | 76 | 1013.5 |
| 20260505162802 | 64 | 224 | 1.0 | 7.0 | 0.00 | 0.20 | 0.13 | 75 | 1013.3 |
| 20260505161803 | 64 | 254 | 4.0 | 7.0 | 0.00 | 0.20 | 0.13 | 76 | 1013.3 |
| 20260505152824 | 60 | 280 | 3.0 | 5.0 | 0.00 | 0.20 | 0.13 | 88 | 1013.2 |
| 20260505151802 | 59 | 228 | 3.0 | 5.0 | 0.00 | 0.20 | 0.13 | 92 | 1013.2 |
| 20260505124824 | 56 | 179 | 0.0 | 2.0 | 0.00 | 0.20 | 0.13 | 99 | 1012.7 |
| 20260505122823 | 55 | 233 | 1.0 | 2.0 | 0.00 | 0.20 | 0.13 | 98 | 1012.4 |
| 20260505121803 | 55 | 328 | 1.0 | 2.0 | 0.00 | 0.20 | 0.13 | 98 | 1012.4 |
| 20260505115823 | 56 | 338 | 1.0 | 1.0 | 0.04 | 0.20 | 0.13 | 98 | 1012.5 |
| 20260505114803 | 56 | 339 | 0.0 | 2.0 | 0.04 | 0.20 | 0.13 | 98 | 1012.5 |
| 20260505112823 | 56 | 348 | 0.0 | 3.0 | 0.04 | 0.20 | 0.13 | 98 | 1012.6 |
| 20260505111802 | 56 | 63 | 1.0 | 3.0 | 0.04 | 0.20 | 0.13 | 98 | 1012.7 |
| 20260505101803 | 57 | 51 | 0.0 | 2.0 | 0.00 | 0.16 | 0.09 | 98 | 1012.7 |
| 20260505095802 | 56 | 309 | 0.0 | 3.0 | 0.02 | 0.16 | 0.09 | 97 | 1012.7 |
| 20260505094824 | 56 | 154 | 1.0 | 3.0 | 0.02 | 0.16 | 0.09 | 97 | 1012.7 |